Teterboro, NJ

2:40 PM EST on November 21, 2019 (GMT -0500)
Teterboro

Weather History for KTEB - September, 2019

Change the Weather History Date:

Monday, September 9, 2019

  Actual Average Record
Temperature  
Mean Temperature 71 °F -  
Max Temperature 79 °F 78 °F 96 °F (2002)
Min Temperature 64 °F 59 °F 53 °F (2017)
Cooling Degree Days 6    
Growing Degree Days 21 (Base 50)    
Moisture  
Dew Point 57 °F    
Average Humidity 63    
Maximum Humidity 78    
Minimum Humidity 52    
Precipitation  
Precipitation 0.00 in - - ()
Sea Level Pressure  
Sea Level Pressure 30.22 in    
Wind  
Wind Speed 4 mph ()    
Max Wind Speed 9 mph    
Max Gust Speed -    
Visibility 10.0 miles    
Events      
Averages and records for this station are not official NWS values.
T = Trace of Precipitation, MM = Missing Value Source: Averaged Metar Reports

Daily Weather History Graph

Daily Weather History Graph

Search for Another Location

Airport or City:

Astronomy

Sep. 09, 2019 Rise Set
Actual Time 6:30 AM EDT 7:15 PM EDT
Civil Twilight 6:02 AM EDT 7:43 PM EDT
Nautical Twilight 5:30 AM EDT 8:16 PM EDT
Astronomical Twilight 4:55 AM EDT 8:50 PM EDT
Moon 5:11 PM EDT (9/9) 1:57 AM EDT (9/9)
Length of Visible Light 13h 40m
Length of Day
12h 45m
Waxing Gibbous, 83% of the Moon is Illuminated
Sep 9
Waxing Gibbous
Sep 14
Full
Sep 21
Last Quarter
Sep 28
New
Oct 5
First Quarter

Hourly Weather History & Observations

Time (EDT) Temp. Dew Point Humidity Pressure Visibility Wind Dir Wind Speed Gust Speed Precip Events Conditions
12:51 AM 69.1 °F 53.1 °F 57% 30.15 in 10.0 mi NE 4.6 mph - N/A   Scattered Clouds
1:51 AM 69.1 °F 52.0 °F 54% 30.16 in 10.0 mi NE 5.8 mph - N/A   Clear
2:51 AM 68.0 °F 52.0 °F 56% 30.16 in 10.0 mi NNE 5.8 mph - N/A   Mostly Cloudy
3:51 AM 66.0 °F 52.0 °F 60% 30.17 in 10.0 mi NNE 3.5 mph - N/A   Scattered Clouds
4:51 AM 66.0 °F 52.0 °F 60% 30.17 in 10.0 mi NNE 4.6 mph - N/A   Mostly Cloudy
5:51 AM 66.0 °F 53.1 °F 63% 30.18 in 10.0 mi NNE 4.6 mph - N/A   Mostly Cloudy
6:51 AM 64.9 °F 53.1 °F 65% 30.20 in 10.0 mi NNE 4.6 mph - N/A   Overcast
7:51 AM 66.0 °F 54.0 °F 65% 30.22 in 10.0 mi North 5.8 mph - N/A   Scattered Clouds
8:51 AM 66.9 °F 55.0 °F 66% 30.22 in 10.0 mi NE 4.6 mph - N/A   Clear
9:51 AM 69.1 °F 55.9 °F 63% 30.24 in 10.0 mi North 5.8 mph - N/A   Partly Cloudy
10:51 AM 71.1 °F 57.0 °F 61% 30.25 in 10.0 mi East 3.5 mph - N/A   Mostly Cloudy
12:51 PM 75.9 °F 59.0 °F 56% 30.23 in 10.0 mi ENE 9.2 mph - N/A   Partly Cloudy
1:51 PM 77.0 °F 59.0 °F 54% 30.22 in 10.0 mi Variable 3.5 mph - N/A   Clear
2:51 PM 78.1 °F 59.0 °F 52% 30.20 in 10.0 mi Calm Calm - N/A   Scattered Clouds
3:51 PM 78.1 °F 60.1 °F 54% 30.21 in 10.0 mi SSE 9.2 mph - N/A   Mostly Cloudy
4:51 PM 75.9 °F 60.1 °F 58% 30.21 in 10.0 mi SSE 6.9 mph - N/A   Overcast
5:51 PM 75.9 °F 61.0 °F 60% 30.22 in 10.0 mi ESE 6.9 mph - N/A   Mostly Cloudy
6:51 PM 73.9 °F 61.0 °F 64% 30.22 in 10.0 mi South 5.8 mph - N/A   Overcast
7:51 PM 72.0 °F 60.1 °F 66% 30.23 in 10.0 mi South 8.1 mph - N/A   Clear
8:51 PM 71.1 °F 61.0 °F 70% 30.25 in 10.0 mi SSE 4.6 mph - N/A   Clear
9:51 PM 69.1 °F 61.0 °F 75% 30.27 in 10.0 mi Calm Calm - N/A   Clear
10:51 PM 70.0 °F 62.1 °F 76% 30.28 in 10.0 mi Calm Calm - N/A   Mostly Cloudy
11:47 PM 69.8 °F 62.6 °F 78% 30.27 in 10.0 mi East 3.5 mph - N/A   Clear
11:51 PM 69.1 °F 62.1 °F 78% 30.27 in 10.0 mi ESE 4.6 mph - N/A   Clear